Location: Bacharowice
(49.9333°N, 19.5833°E)
Time: 08:52:29
(UTC+00:00)

Gblst 52 Del rocket - Pass Details

Date: 11 May 2021
Orbit: 805 x 1365 km, 51.5° (Epoch: 21 June)

Event Time Altitude Azimuth Distance (km) Brightness Sun altitude
Rises 22:17:57 0° 291° (WNW) 3,941 8.0 -21.8°
Reaches altitude 10° 22:20:51 10° 288° (WNW) 2,893 7.2 -21.8°
Maximum altitude 22:27:34 61° 211° (SSW) 1,078 4.4 -21.9°
Enters shadow 22:29:38 40° 150° (SSE) 1,331 4.8 -21.9°
